Wind_Speed
21 22 22 22 22 23 24 23 24 24 25 24 21 19 19 20 17 15 16 18 19 19 21 13 7 6 9 9 7 9 12 17 17 20 19 20 21 22 23 24 22 23 27
20 21 21 20 21 21 23 24 25 25 23 19 17 18 20 16 12 15 17 18 19 20 9 3 8 8 11 12 11 7 15 16 16 20 21 20 21 20 21 23 23 23 26
21 17 18 19 20 21 21 21 21 21 18 17 16 18 15 12 12 14 15 17 20 19 12 6 9 10 11 15 13 9 17 20 17 19 21 22 21 20 20 21 21 22 23
16 16 17 18 19 19 19 18 17 16 18 16 16 14 11 11 11 13 12 15 15 13 13 10 11 11 11 15 13 14 19 22 20 20 21 21 21 20 21 19 19 20 20
16 16 17 17 17 18 19 19 19 19 19 16 14 11 10 10 10 8 10 13 9 1 6 11 12 13 13 16 16 16 19 20 22 22 21 19 19 19 18 17 18 18 19
15 16 15 16 17 16 16 14 14 14 12 11 11 9 9 7 7 5 8 11 3 1 8 11 12 12 16 18 16 16 15 19 23 22 20 18 19 19 20 21 18 14 11
15 15 14 15 12 11 11 8 8 8 8 9 9 8 6 7 4 4 5 6 2 4 2 9 11 12 16 17 14 14 14 17 18 19 21 21 22 26 21 19 21 20 19
14 13 13 12 10 9 7 6 5 5 7 8 8 6 5 5 3 3 7 7 3 3 4 5 12 12 14 14 14 15 15 16 18 18 17 18 17 18 22 22 23 18 14
14 12 12 10 9 8 5 4 3 6 7 10 6 4 4 2 2 4 9 10 7 3 3 7 11 14 14 16 17 18 20 19 18 18 20 20 16 18 24 23 19 21 20
12 11 10 11 9 6 5 4 3 6 8 11 7 4 2 3 4 5 7 10 9 9 7 10 17 16 14 17 21 22 21 19 19 21 18 19 14 18 24 19 24 16 18
11 10 10 10 7 6 6 5 4 7 8 10 9 4 2 6 5 6 7 12 15 14 13 16 19 20 20 23 23 23 23 24 23 23 22 21 22 15 19 18 24 26 26
9 9 8 7 6 6 8 8 4 7 9 10 10 5 4 6 4 7 6 10 17 19 16 18 20 22 23 26 27 25 21 21 21 24 22 23 22 17 20 23 20 23 27
7 8 6 5 5 5 8 11 8 8 12 12 11 6 6 6 5 8 7 14 15 18 19 18 17 20 23 23 22 21 21 21 21 20 19 25 22 24 23 19 21 20 20
7 7 4 3 2 6 8 9 9 11 13 15 14 10 9 6 7 8 9 15 13 14 16 20 22 20 17 17 19 17 20 17 17 20 23 26 28 28 27 28 25 22 19
6 6 4 2 3 5 7 11 10 14 16 17 14 11 8 7 11 9 10 14 15 15 14 17 23 22 17 17 18 18 18 21 22 25 23 26 28 26 25 25 20 17 13
7 8 6 3 5 6 9 11 11 17 16 18 13 11 8 11 11 10 12 13 15 12 12 15 19 24 25 23 21 21 24 19 17 22 24 23 23 24 24 22 19 14 10
8 10 7 6 7 8 10 12 15 18 17 17 12 9 12 13 13 13 14 14 14 14 15 16 16 19 20 24 24 21 16 16 22 22 21 20 20 22 21 18 15 11 9
10 11 8 9 8 10 13 14 16 16 17 14 12 11 12 14 15 13 13 16 16 16 17 16 15 15 16 19 22 23 24 23 21 18 17 16 18 19 18 16 12 11 9
12 13 10 8 9 11 14 15 14 15 15 14 14 14 14 14 16 17 16 16 17 18 17 15 13 13 12 12 12 13 15 16 16 15 15 16 18 17 15 13 12 11 10
12 13 12 9 9 11 12 13 15 15 16 17 18 17 16 16 14 13 14 14 14 13 12 12 12 11 11 11 11 12 12 13 14 14 13 13 13 13 13 12 12 12 12
15 14 14 12 10 10 11 12 14 16 17 15 17 19 19 17 15 13 12 11 11 11 11 11 11 11 12 13 14 14 13 13 13 13 13 12 12 12 12 13 13 13 14
19 18 16 16 13 11 11 11 11 12 13 16 15 14 15 15 15 15 14 14 14 13 12 12 13 13 13 13 13 12 10 10 11 13 13 13 12 11 11 12 13 14 16
21 19 19 19 18 16 13 11 11 12 11 11 13 13 12 11 11 11 10 10 9 8 8 8 10 11 13 14 16 17 17 18 18 18 19 18 16 16 17 18 20 20 21
27 25 22 21 21 20 19 18 16 13 12 12 11 11 11 10 10 9 8 7 6 6 6 6 7 8 9 9 10 12 14 16 18 20 23 23 23 22 22 22 23 25 26
31 30 29 27 25 23 23 22 21 21 20 19 18 18 17 17 16 15 15 15 15 15 15 15 16 16 17 17 16 17 18 19 20 20 21 21 21 23 24 25 26 27 28
19 31 31 30 30 28 28 27 25 25 24 25 26 26 26 26 26 26 25 25 25 25 25 26 26 24 23 23 24 25 26 27 28 29 29 29 29 29 30 31 32 32 32
Wind_Direction
241 241 247 252 260 264 267 269 270 274 278 285 280 280 282 285 284 283 282 285 291 295 282 257 242 227 199 186 203 209 208 198 195 191 190 193 194 197 195 193 192 196 202
239 243 250 257 257 261 263 266 270 274 279 281 278 278 283 279 278 278 283 288 286 276 294 325 213 206 195 195 182 194 202 194 192 190 191 189 188 188 190 190 190 188 195
235 242 252 251 253 260 269 273 270 271 268 277 278 276 279 277 286 284 289 290 291 294 293 248 201 193 189 194 203 228 196 190 187 186 190 189 187 185 185 186 186 189 195
234 244 245 246 256 264 268 271 274 270 269 276 270 279 269 283 283 286 296 302 299 275 259 220 187 186 183 188 187 192 187 191 192 188 186 189 188 187 188 184 187 191 189
235 237 238 252 265 270 275 273 270 270 270 266 264 267 272 281 296 291 312 321 336 7 166 179 177 182 180 171 173 174 184 189 192 188 187 187 186 185 182 178 184 184 192
226 230 242 260 272 272 267 272 275 268 257 251 253 244 267 295 299 308 325 334 5 262 162 172 183 182 179 173 172 174 171 183 182 183 183 180 180 181 186 184 182 185 172
225 232 248 267 267 262 270 272 271 254 247 232 226 234 266 294 301 326 355 19 8 9 148 173 161 173 173 180 183 173 172 179 181 180 180 180 182 173 174 178 178 179 171
224 234 253 257 249 259 264 252 253 219 218 208 205 225 267 283 266 18 42 67 50 83 71 111 168 164 175 170 168 165 163 168 167 168 182 184 183 175 181 183 175 180 175
225 237 250 242 258 254 265 248 257 217 213 189 197 220 272 287 165 76 31 50 64 102 137 151 159 162 158 160 161 163 164 164 161 163 167 167 167 168 178 182 173 169 174
229 238 245 253 254 264 238 246 245 194 194 188 191 223 282 130 129 90 46 42 75 93 127 150 157 152 145 147 152 151 153 154 155 159 163 173 163 149 164 162 179 192 189
229 238 251 258 261 262 229 220 226 204 189 188 198 210 149 129 113 100 63 66 83 92 114 137 151 154 144 141 148 144 146 150 156 159 160 165 169 162 171 180 164 155 154
229 238 250 258 262 244 204 192 187 186 184 184 194 192 144 120 102 114 95 89 80 89 103 127 139 141 142 137 137 138 148 157 159 156 158 167 170 167 151 149 160 169 161
224 235 235 238 235 200 187 193 200 184 177 174 181 171 151 138 142 134 124 130 100 88 102 119 136 146 143 149 147 148 154 158 163 171 178 173 161 152 148 145 155 152 152
217 225 207 225 201 182 201 190 190 185 174 167 172 170 156 159 152 141 138 149 136 115 108 118 116 121 132 142 156 160 153 159 163 159 154 150 154 159 160 156 163 161 161
204 197 171 138 149 164 174 177 176 175 170 166 168 172 166 151 154 136 145 151 148 128 116 130 128 124 129 138 144 146 144 140 149 149 150 156 165 170 169 164 160 162 165
188 172 140 128 137 148 147 148 155 160 163 161 160 166 158 150 149 140 139 148 150 153 137 134 137 135 133 131 136 143 151 152 158 149 144 150 159 165 167 165 169 170 181
173 163 135 124 129 131 138 137 144 154 160 156 155 154 152 146 146 136 139 149 144 145 142 136 133 131 135 137 138 145 150 150 150 147 153 161 168 174 172 175 179 190 208
165 162 132 117 124 122 125 135 140 149 152 151 151 149 143 141 139 140 139 140 144 143 142 142 138 134 138 140 145 149 151 152 156 159 160 169 177 181 186 191 202 221 239
169 168 148 128 116 121 133 128 137 142 146 147 145 145 143 142 141 137 133 132 136 139 142 142 144 144 145 144 147 152 154 158 165 173 181 186 190 196 204 214 227 243 253
172 176 164 155 137 121 134 145 149 151 151 152 150 149 148 146 147 146 147 148 148 149 154 159 162 167 167 159 159 161 164 167 174 181 188 194 202 209 218 234 247 250 253
172 177 180 174 161 150 140 137 142 150 150 150 151 153 153 152 152 152 151 150 154 157 161 170 169 166 166 169 170 169 173 180 188 194 200 209 220 229 236 240 244 250 256
181 182 183 188 184 173 161 159 157 156 159 163 165 165 164 164 164 163 162 161 159 157 159 164 165 166 170 174 180 187 196 206 211 211 212 217 227 237 244 254 261 265 270
182 191 194 191 192 194 190 183 174 170 176 184 183 182 185 188 187 184 181 179 176 173 174 182 191 198 204 211 217 224 230 233 230 225 227 231 238 251 260 260 262 266 272
194 195 198 202 198 196 202 205 202 202 198 192 196 201 205 212 216 215 213 213 215 222 228 230 233 234 234 237 241 246 252 258 257 254 253 257 263 271 275 274 275 278 282
201 203 204 203 202 202 204 206 212 213 215 222 225 225 226 229 231 234 237 241 245 247 248 249 249 250 252 254 259 266 269 274 274 274 275 277 279 280 282 283 284 285 287
212 216 208 215 215 212 210 209 211 215 218 220 224 230 236 239 241 244 247 249 250 250 250 251 252 256 261 262 260 260 260 261 263 265 265 267 270 273 276 277 277 277 278
Height
5723 5725 5727 5727 5727 5727 5726 5725 5725 5724 5722 5720 5719 5718 5717 5715 5714 5712 5711 5709 5706 5703 5701 5698 5699 5700 5701 5702 5703 5705 5708 5712 5715 5718 5721 5725 5729 5734 5738 5742 5746 5750 5755
5719 5721 5721 5722 5722 5721 5721 5720 5719 5718 5717 5715 5715 5714 5714 5712 5711 5709 5707 5704 5701 5698 5695 5696 5697 5698 5699 5701 5703 5705 5708 5711 5714 5717 5721 5725 5729 5733 5737 5742 5746 5750 5754
5715 5716 5716 5716 5717 5717 5716 5714 5713 5713 5712 5712 5712 5711 5711 5709 5707 5705 5703 5700 5696 5694 5693 5693 5694 5695 5697 5699 5702 5704 5707 5711 5714 5717 5721 5725 5729 5734 5738 5742 5746 5750 5754
5710 5711 5712 5713 5713 5712 5711 5710 5709 5709 5708 5709 5709 5709 5707 5706 5704 5702 5700 5697 5692 5688 5688 5690 5692 5694 5696 5698 5701 5703 5707 5711 5714 5717 5721 5726 5730 5734 5738 5742 5746 5750 5755
5706 5707 5709 5709 5708 5707 5706 5705 5704 5704 5704 5705 5706 5705 5704 5703 5702 5700 5698 5694 5689 5687 5686 5689 5691 5693 5695 5698 5702 5704 5706 5710 5714 5718 5722 5726 5731 5735 5739 5743 5746 5750 5754
5701 5703 5705 5705 5703 5703 5701 5701 5700 5699 5700 5702 5702 5703 5702 5702 5700 5699 5696 5692 5689 5687 5686 5687 5690 5692 5695 5699 5702 5705 5708 5711 5714 5718 5722 5727 5731 5735 5739 5743 5747 5751 5754
5699 5700 5701 5700 5700 5699 5698 5698 5697 5698 5699 5700 5700 5701 5701 5701 5699 5698 5694 5692 5690 5688 5686 5688 5690 5693 5695 5699 5702 5705 5709 5712 5717 5720 5723 5727 5730 5734 5739 5743 5747 5750 5754
5696 5697 5698 5697 5697 5697 5696 5696 5696 5697 5698 5698 5699 5700 5700 5700 5699 5697 5694 5692 5691 5690 5689 5689 5691 5694 5696 5700 5703 5706 5710 5714 5718 5721 5725 5729 5731 5735 5740 5743 5747 5750 5754
5693 5695 5695 5695 5695 5695 5695 5695 5695 5696 5697 5698 5699 5700 5700 5700 5699 5698 5695 5693 5691 5690 5689 5690 5692 5695 5697 5700 5703 5707 5711 5715 5720 5724 5727 5730 5734 5735 5740 5745 5749 5752 5756
5691 5692 5692 5692 5692 5692 5692 5693 5694 5695 5696 5698 5700 5700 5700 5700 5699 5698 5697 5694 5692 5691 5690 5691 5693 5696 5699 5702 5704 5708 5713 5717 5721 5725 5729 5733 5736 5739 5743 5745 5749 5752 5756
5689 5689 5690 5690 5689 5689 5690 5691 5692 5694 5696 5698 5699 5700 5701 5701 5700 5699 5699 5697 5695 5693 5691 5693 5695 5698 5701 5704 5708 5711 5716 5718 5721 5726 5730 5734 5739 5742 5744 5747 5751 5754 5757
5687 5687 5688 5687 5687 5687 5688 5689 5691 5693 5696 5697 5699 5700 5701 5702 5701 5701 5701 5700 5699 5697 5696 5697 5699 5701 5705 5708 5712 5715 5718 5721 5723 5727 5731 5735 5740 5744 5747 5751 5754 5756 5760
5685 5686 5686 5686 5686 5686 5687 5689 5691 5692 5694 5696 5699 5700 5702 5702 5702 5702 5702 5703 5704 5702 5702 5702 5703 5706 5709 5712 5715 5718 5721 5723 5726 5729 5732 5736 5740 5746 5750 5753 5758 5761 5764
5685 5686 5686 5685 5686 5686 5686 5688 5689 5691 5693 5696 5698 5701 5702 5703 5703 5703 5704 5705 5706 5707 5707 5707 5707 5709 5711 5714 5717 5721 5724 5726 5728 5730 5734 5737 5743 5747 5751 5754 5758 5761 5765
5685 5686 5686 5685 5686 5685 5685 5686 5688 5690 5693 5696 5699 5701 5703 5703 5704 5704 5706 5707 5709 5711 5712 5712 5712 5713 5715 5718 5721 5724 5727 5730 5733 5735 5736 5740 5744 5749 5753 5757 5761 5764 5767
5685 5686 5686 5686 5686 5685 5685 5686 5687 5690 5694 5697 5700 5702 5703 5704 5704 5706 5708 5709 5711 5714 5715 5716 5716 5717 5718 5721 5724 5728 5731 5734 5737 5738 5741 5745 5748 5752 5755 5759 5763 5766 5768
5686 5687 5687 5687 5687 5686 5686 5687 5689 5693 5696 5698 5701 5703 5704 5705 5707 5708 5710 5712 5714 5717 5719 5720 5721 5722 5724 5726 5728 5731 5735 5737 5740 5743 5746 5749 5752 5756 5759 5761 5763 5765 5767
5686 5688 5689 5689 5689 5688 5689 5690 5692 5694 5698 5700 5703 5704 5706 5708 5709 5711 5713 5714 5716 5719 5722 5724 5726 5728 5729 5731 5733 5735 5737 5740 5742 5745 5748 5751 5754 5757 5759 5761 5763 5765 5766
5686 5688 5690 5691 5691 5691 5692 5692 5695 5697 5700 5702 5704 5706 5708 5710 5712 5714 5716 5718 5720 5722 5724 5727 5728 5730 5732 5734 5736 5738 5740 5742 5744 5746 5749 5751 5753 5756 5759 5760 5762 5763 5763
5686 5689 5691 5693 5694 5694 5695 5695 5697 5700 5702 5704 5705 5708 5710 5712 5715 5717 5719 5721 5722 5724 5726 5728 5730 5731 5733 5735 5737 5739 5741 5743 5745 5747 5749 5751 5753 5755 5757 5758 5759 5759 5759
5684 5688 5691 5694 5695 5696 5698 5699 5700 5702 5704 5706 5708 5710 5711 5713 5716 5718 5720 5723 5725 5726 5728 5729 5730 5732 5734 5735 5737 5739 5741 5743 5745 5747 5749 5750 5751 5753 5754 5755 5755 5756 5756
5682 5686 5689 5693 5696 5698 5699 5701 5703 5704 5707 5708 5710 5713 5714 5716 5717 5719 5721 5723 5724 5726 5727 5729 5730 5732 5734 5736 5737 5739 5741 5742 5744 5745 5746 5747 5748 5749 5750 5751 5751 5751 5751
5680 5684 5688 5690 5694 5698 5700 5702 5704 5706 5708 5710 5711 5713 5716 5718 5720 5722 5723 5724 5725 5727 5728 5730 5731 5732 5734 5735 5736 5737 5738 5739 5740 5741 5742 5743 5745 5746 5746 5747 5747 5747 5746
5676 5680 5684 5687 5690 5693 5697 5700 5703 5706 5708 5710 5712 5714 5716 5718 5720 5722 5723 5725 5726 5727 5729 5730 5731 5732 5733 5733 5734 5736 5736 5737 5738 5739 5740 5741 5742 5742 5743 5743 5743 5742 5741
5671 5676 5679 5682 5686 5690 5693 5696 5699 5702 5705 5707 5709 5711 5713 5715 5717 5719 5721 5722 5723 5724 5725 5726 5727 5727 5729 5729 5731 5732 5733 5734 5734 5735 5735 5736 5737 5737 5737 5737 5736 5735 5734
5669 5672 5676 5680 5683 5686 5688 5690 5693 5695 5698 5701 5703 5705 5707 5710 5711 5713 5715 5715 5716 5717 5718 5719 5719 5722 5724 5726 5725 5725 5725 5725 5725 5725 5726 5727 5727 5727 5727 5725 5724 5723 5722